Flag for Norway Weather past 2 weeks in Indre Arna, Norway

Now
47 °F

Cool.


Feels Like: 46 °F
Forecast: 43 / 51 °F
Wind: 3 mph from South

Location: Bergen / Florida

Current Time: May 28, 2015 at 12:19:59 AM

Latest Report: May 27, 2015 at 10:00 PM


Visibility: N/A

Pressure: 29.86 "Hg

Humidity: 82%

Dew point: 42 °F

Location of Indre ArnaLocation

Historic Weather in Indre Arna — Graph

°F

Indre Arna temperature yesterday

Maximum temperature yesterday: 56 °F (at 4:00 PM)
Minimum temperature yesterday: 45 °F (at 6:00 AM)
Average temperature yesterday: 48 °F

Past Weeks' High & Low Weather Summary

 TemperatureHumidityPressure
High59 °F (May 13, 4:00 PM)89% (May 22, 2:00 AM)30.15 "Hg (May 22, 2:00 AM)
Low38 °F (May 15, 6:00 AM)29% (May 19, 2:00 AM)29.23 "Hg (May 19, 8:00 AM)
Average48 °F70%29.83 "Hg
* Reported May 12 10:00 PM — May 27 10:00 PM, Indre Arna, Weather by CustomWeather, © 2015

Note: Actual official high and low records may vary slightly from our data, if they occured in-between our weather recording intervals... More about our weather records

Advertising

Indre Arna weather history for previous 24 hours

 ConditionsComfort  
Time TempWeatherWind HumidityBarometerVisibility
10:00 PM
Wed, May 27
47 °FCool.3 mph82%29.86 "HgN/A
9:00 PM48 °FCool.3 mph84%29.88 "HgN/A
8:00 PM48 °FSprinkles. Low clouds.3 mph84%29.90 "Hg6 mi
7:00 PM48 °FCool.5 mph80%29.92 "HgN/A
6:00 PM50 °FCool.8 mph71%29.94 "HgN/A
5:00 PM52 °FPartly sunny.6 mph65%29.95 "Hg25 mi
4:00 PM56 °FRefreshingly cool.3 mph56%29.95 "HgN/A
3:00 PM51 °FCool.3 mph65%29.96 "HgN/A
2:00 PM52 °FOvercast.N/A73%29.96 "Hg19 mi
1:00 PM47 °FCool.N/A77%29.97 "HgN/A
12:00 PM51 °FCool.2 mph74%29.97 "HgN/A
11:00 AM49 °FOvercast.3 mph77%29.98 "Hg19 mi
10:00 AM47 °FCool.3 mph80%29.98 "HgN/A
9:00 AM47 °FCool.3 mph76%29.97 "HgN/A
8:00 AM47 °FOvercast.2 mph80%29.96 "Hg19 mi
7:00 AM45 °FCool.1 mph84%29.96 "HgN/A
6:00 AM45 °FQuite cool.1 mph83%29.96 "HgN/A
4:00 AM45 °FQuite cool.3 mph82%29.96 "HgN/A
3:00 AM46 °FCool.3 mph83%29.96 "HgN/A
2:00 AM45 °FCool.3 mph84%29.96 "HgN/A
1:00 AM45 °FCool.1 mph86%29.96 "HgN/A
12:00 AM45 °FQuite cool.1 mph84%29.96 "HgN/A
Weather by CustomWeather, © 2015

See weather overviewHow to use our weather pages